{"data":{"norad_id":48046,"epoch":"2026-09-19T19:34:08.382720Z","epoch_age_seconds":81063,"freshness":"FRESH","line1":"1 48046U 21025E   26262.81537480 -.00000101  00000+0 -31076-3 0  9999","line2":"2 48046  87.8924 301.3953 0001998  91.9308 268.2050 13.13469106266071","mean_motion":13.13469106,"eccentricity":0.0001998,"inclination_deg":87.8924,"raan_deg":301.3953,"arg_perigee_deg":91.9308,"mean_anomaly_deg":268.205,"bstar":-0.00031076,"rev_number":26607,"period_min":109.63333613421,"perigee_km":1208.2527794005,"apogee_km":1211.2849065754,"semimajor_km":7587.905842988,"source":"CELESTRAK","updated_at":"2026-09-20T09:00:44.584394Z"}}